Torna al catalogo

STARLINK-3324

AttivoComunicazioniVLEO
NORAD 50814·PAYLOAD·🇺🇸 United States

Lanciato Jan 6, 2022 da Cape Canaveral Space Force Station

Loading…

Prossimi Passaggi (prossime 24 ore)

TLE

AggiornatoSource: CelesTrak SupGP

Epoca: Sep 14, 2026, 13:02 UTC

1 50814C 22001M   26257.54354167 -.00041399  00000+0 -13313-2 0  2577
2 50814  53.1594  31.4957 0001174  90.5958 248.2641 15.31722281    15

Traccia STARLINK-3324 in tempo reale con AllMySat

Download on the App Store